SCP
0 0 0 -0 0 0 0 0 0 0 0 0 0 -0 0 0 0 0 -0 0 0 0 0 0 0 0 0 0 0 0 0 0 0 0 0 0 0 0 0 0 0 0 0 0
0 0 0 0 0 0 0 0 0 0 0 0 0 0 0 0 0 -0 0 0 0 0 0 0 0 0 0 0 0 0 0 0 0 0 0 0 0 0 0 0 0 0 0 0
0 0 0 0 0 0 0 0 -0 0 0 0 0 0 0 0 0 0 0 0 0 0 0 0 0 0 0 0 0 0 0 0 0 0 0 0 0 0 0 0 0 0 0 0
0 0 0 0 0 0 0 0 0 0 0 0 0 0 1 1 0 0 0 0 0 0 0 0 0 0 0 0 0 0 0 0 0 0 0 0 0 0 0 0 0 0 0 0
0 0 0 0 0 0 0 0 0 0 0 1 1 2 1 1 0 0 0 0 0 0 0 0 0 0 0 0 0 0 0 0 0 0 0 0 0 0 0 0 0 0 0 0
0 0 0 0 0 0 0 0 0 1 1 1 1 2 1 1 0 0 0 -0 0 0 0 0 0 0 0 0 0 0 0 0 0 0 0 0 0 0 0 0 0 0 0 0
0 0 0 0 0 0 0 0 0 1 1 1 1 0 0 1 0 0 0 0 0 0 0 0 0 0 0 0 0 0 0 0 0 0 0 0 0 0 0 0 0 0 0 0
0 0 0 0 0 0 0 0 2 1 1 1 0 0 1 1 0 0 0 0 0 0 0 0 0 0 0 0 0 0 0 0 0 0 0 0 0 0 0 0 0 0 0 0
0 0 0 0 -0 0 0 0 2 2 2 0 1 0 0 1 0 0 0 0 0 0 0 0 0 0 0 0 0 0 0 0 0 0 0 0 0 0 0 0 0 0 0 0
0 0 0 0 0 0 1 1 1 0 0 0 1 1 0 0 0 0 0 0 0 0 0 0 0 0 0 0 0 0 0 0 0 0 0 0 0 0 0 0 0 0 0 0
0 0 0 0 0 0 1 0 1 1 1 0 0 0 0 0 0 0 0 0 0 0 0 0 0 0 0 0 0 0 0 0 0 0 0 0 0 0 0 0 0 0 0 0
0 0 0 0 0 0 0 0 0 0 0 0 0 0 0 0 0 0 0 0 0 0 0 0 0 0 0 0 0 0 0 0 0 0 0 0 0 0 0 0 0 0 0 0
0 0 0 0 0 0 0 0 0 0 0 0 0 0 0 0 0 0 0 0 0 0 0 0 0 0 0 0 0 0 0 0 0 0 0 0 0 0 0 0 0 0 0 0
0 0 0 0 0 0 0 0 0 0 0 0 0 0 0 0 0 0 0 0 0 0 0 0 0 0 0 0 0 0 0 0 0 0 0 0 0 0 0 0 0 0 0 0
0 0 0 0 0 0 0 0 0 0 0 0 0 0 0 0 0 0 0 0 0 0 0 0 0 0 -0 -0 0 0 0 0 0 0 0 0 0 0 0 0 0 0 0 0
0 0 0 0 0 0 0 0 0 0 0 0 0 0 0 0 0 0 0 0 0 0 0 0 0 0 -0 -0 0 0 0 0 0 0 0 0 0 0 0 0 0 0 0 0
0 0 0 0 0 0 0 0 0 0 0 0 0 0 0 0 0 0 0 0 0 0 0 0 0 0 0 -0 0 0 0 0 0 0 0 0 0 0 0 0 0 0 0 0
0 0 0 0 0 0 0 0 0 0 0 0 0 0 0 0 0 0 0 0 0 0 0 0 0 0 0 0 0 0 0 0 0 0 0 0 0 0 0 0 0 0 0 0
0 0 0 0 0 0 0 0 0 0 0 0 0 0 0 0 0 0 0 0 0 0 0 0 0 0 0 0 0 0 0 0 0 0 0 0 0 0 0 0 0 0 0 0
0 0 0 0 0 0 0 0 0 0 -0 0 0 0 0 0 0 0 0 0 0 0 0 0 0 0 0 0 0 0 0 0 0 0 0 0 0 0 0 0 0 0 0 0
0 0 0 0 0 0 0 0 -0 -0 0 0 0 0 0 0 0 0 0 0 0 0 0 0 0 0 0 0 0 0 0 0 0 0 0 0 0 0 0 0 -0 -0 0 0
0 0 0 0 0 -0 -0 0 0 0 0 0 0 0 0 0 0 0 0 0 0 -0 0 0 0 0 0 0 0 0 0 0 0 0 0 0 0 0 0 0 -0 0 0 0
0 0 0 0 0 0 0 0 0 0 0 0 0 0 0 0 0 0 0 0 0 0 0 0 0 0 0 0 0 0 0 0 0 0 0 0 0 0 0 0 -0 0 0 -0
0 0 0 0 0 0 0 0 0 0 0 0 0 0 0 0 0 0 0 0 -0 0 0 0 0 0 0 0 0 0 0 0 0 0 0 0 0 0 0 -0 -0 0 0 0
0 0 0 0 0 0 0 0 0 0 -0 -0 0 -0 -0 0 0 0 0 0 0 0 0 0 0 0 0 0 0 0 0 0 0 0 0 0 0 0 0 -0 -0 0 0 0
0 0 0 0 0 0 0 -0 -0 -0 -0 0 0 0 0 0 0 0 0 0 0 0 0 0 0 0 0 0 0 0 0 -0 0 0 0 0 0 0 0 0 0 -0 -0 0
0 0 0 -0 -0 -0 -0 -0 0 -0 -0 -0 -0 0 0 0 0 0 0 0 0 0 0 0 0 0 -0 0 -0 -0 0 0 0 0 0 0 0 0 0 0 0 0 -0 -0
Wind_Speed_500mb
10 10 7 9 13 20 11 6 7 10 23 28 30 36 46 54 70 61 40 45 25 33 31 38 51 65 67 68 60 56 53 55 46 39 23 18 12 11 14 16 14 17 19 28
10 16 17 15 16 19 7 9 13 13 11 11 32 23 20 32 50 59 52 34 33 41 42 42 49 59 61 64 63 59 42 35 30 17 41 36 17 36 35 41 37 23 23 25
12 12 11 11 13 7 6 5 11 8 5 33 14 32 35 34 46 43 43 36 35 37 34 27 30 32 35 29 22 17 12 13 18 23 18 25 26 20 14 13 22 27 27 23
5 11 2 8 12 10 15 8 13 12 22 36 33 37 26 57 56 41 35 29 27 27 22 15 18 21 26 24 20 21 23 20 15 10 8 9 11 8 10 17 18 21 24 27
4 6 9 0 4 3 7 13 18 11 28 46 54 64 44 55 63 65 34 32 24 22 32 27 22 24 23 20 16 13 7 2 5 10 14 19 22 23 26 29 30 32 34 37
9 9 12 8 13 22 9 6 30 11 32 60 51 20 13 66 75 69 57 33 34 38 35 33 23 20 20 19 10 5 3 10 16 23 27 29 31 32 35 38 41 43 43 42
8 8 8 7 20 21 9 11 32 10 55 44 8 20 71 69 68 53 26 24 31 24 23 18 14 8 8 8 11 9 16 20 27 30 31 33 36 38 40 40 41 40 41 40
5 6 8 11 9 12 11 6 5 27 46 28 30 57 54 51 33 30 41 41 30 24 18 12 9 9 9 10 12 18 23 23 27 30 32 33 35 35 36 38 42 44 46 46
10 11 16 6 29 25 24 33 23 33 31 41 43 45 64 37 44 48 44 42 38 32 25 14 7 8 9 12 17 23 26 29 32 32 31 29 33 36 37 39 43 45 50 56
5 9 18 13 17 12 17 44 39 34 41 43 47 42 46 53 56 51 52 46 35 27 20 13 8 12 13 15 23 30 35 36 34 36 37 35 35 38 41 40 44 50 52 53
8 7 2 18 18 25 29 33 37 36 45 44 56 54 62 61 52 44 36 27 20 16 15 14 12 15 19 25 32 34 36 35 37 38 40 44 40 38 41 41 37 41 49 49
9 14 14 19 35 54 54 53 57 61 65 71 65 69 58 47 36 32 25 21 16 12 11 13 18 25 31 35 38 41 41 40 38 36 32 31 32 33 27 35 38 43 43 40
8 6 24 48 60 52 60 65 62 68 65 73 63 60 50 45 33 19 22 14 9 13 15 19 23 24 27 28 28 26 29 30 30 31 34 33 29 33 44 42 37 39 34 31
8 19 37 56 58 64 72 69 67 66 61 56 50 39 34 30 29 21 11 6 8 11 10 3 14 25 36 35 29 24 28 34 31 33 36 39 36 33 37 44 43 39 27 30
6 8 25 39 62 60 59 62 63 59 52 48 37 34 26 22 14 9 10 9 12 11 6 6 17 28 40 37 22 14 29 49 43 27 33 37 38 38 38 39 39 41 42 46
7 14 14 50 66 68 63 55 54 48 40 33 23 19 13 8 8 8 6 8 13 13 11 11 19 25 35 35 30 29 32 45 42 33 35 40 41 40 38 38 40 44 46 49
18 17 39 56 59 52 45 38 35 34 30 22 21 16 15 17 17 18 10 6 20 18 15 18 16 21 30 32 33 34 42 44 45 44 37 40 42 41 39 37 39 47 50 54
12 21 42 58 54 46 45 45 39 37 27 32 26 23 18 14 12 8 9 21 25 20 16 21 26 24 31 33 37 38 43 43 47 48 46 38 38 37 38 40 46 49 62 62
22 45 54 49 45 43 53 44 31 27 24 21 17 13 14 10 9 17 24 26 19 17 19 25 28 26 28 31 31 37 42 45 42 46 43 38 34 34 36 39 48 59 59 56
34 32 30 38 38 37 34 13 25 18 19 7 8 9 7 9 10 20 20 21 23 24 24 24 26 23 31 34 35 37 41 40 37 39 44 39 30 35 39 45 57 66 55 51
33 30 32 31 26 20 24 34 29 28 23 19 16 15 14 14 16 16 18 26 21 18 21 28 27 29 31 34 37 36 41 42 38 41 44 47 48 48 50 53 61 67 49 44
33 36 39 36 33 31 31 28 27 27 19 11 10 11 11 10 8 11 21 31 31 25 29 35 38 37 35 35 38 40 41 39 41 46 51 50 50 58 55 55 59 55 43 40
28 28 25 23 17 26 30 30 26 22 15 12 11 8 10 13 15 23 31 26 28 30 36 46 42 37 36 39 35 37 42 35 43 46 44 43 48 55 50 53 50 44 39 36
15 11 7 8 16 15 17 25 21 11 7 5 10 6 9 16 22 26 27 30 32 35 35 44 42 37 40 34 29 35 30 32 32 39 34 26 29 34 35 35 37 35 31 30
4 7 6 6 6 1 19 23 18 12 14 13 14 16 20 21 22 18 16 24 31 48 45 39 40 42 38 31 28 29 31 38 26 23 19 16 23 30 28 32 40 45 39 33
12 8 5 4 8 11 11 12 14 9 8 14 21 11 6 11 24 24 15 20 36 52 55 33 41 37 23 21 15 25 32 20 15 13 24 9 28 31 29 32 37 43 40 39
11 14 11 11 10 9 12 10 8 7 7 14 4 7 8 15 20 26 33 29 30 38 52 39 37 32 27 22 13 16 9 17 11 13 20 17 22 28 26 30 37 40 34 34
Wind_Direction_500mb
226 225 261 266 278 302 241 142 124 223 154 177 163 149 163 146 150 158 202 223 147 134 151 154 166 187 192 193 193 187 184 194 196 202 188 201 207 350 332 307 293 304 307 286
338 354 349 301 301 310 51 24 69 72 82 177 173 136 206 154 172 175 195 165 136 125 122 122 129 128 142 153 159 178 187 171 188 186 201 212 214 215 228 285 285 297 295 285
292 334 350 351 326 104 154 198 133 88 190 161 153 148 166 191 177 163 158 154 139 125 124 126 114 116 118 118 117 130 128 174 183 170 208 276 283 273 293 270 285 276 262 270
250 341 327 179 306 10 103 10 32 75 128 155 163 159 143 152 144 142 156 144 141 140 151 160 137 135 119 122 124 135 139 158 185 215 252 321 356 329 286 274 273 278 287 293
181 207 293 256 30 351 359 73 11 122 113 122 121 101 95 141 148 145 160 154 152 153 138 127 123 115 129 136 127 114 120 144 298 305 306 309 307 301 297 296 298 298 298 296
143 192 226 222 290 297 168 177 12 172 147 139 147 110 152 143 152 141 149 167 162 157 145 145 139 143 127 119 124 148 239 295 302 303 305 306 308 308 308 308 307 306 306 309
178 196 300 256 294 328 119 237 338 226 173 164 155 157 143 141 144 148 129 169 168 161 145 137 153 188 170 184 232 250 273 285 294 298 306 312 313 314 314 313 311 313 310 308
111 90 259 308 339 105 223 53 132 124 171 152 121 139 153 164 169 189 167 177 179 170 148 172 218 236 225 248 272 279 285 296 297 304 310 309 306 305 305 309 311 312 313 313
164 208 222 255 136 110 73 136 123 119 152 190 184 173 178 181 166 161 159 164 164 156 149 160 224 283 293 292 294 300 307 305 310 311 312 308 304 304 304 306 309 309 311 307
94 248 226 203 148 129 79 125 124 128 140 156 154 156 155 163 151 147 143 146 145 151 164 170 213 250 268 271 287 295 299 302 305 303 303 298 293 289 290 293 296 302 306 309
302 43 180 217 206 174 156 149 132 131 140 141 161 158 154 150 149 147 144 149 171 177 184 195 230 266 282 288 289 292 292 295 297 295 294 294 293 285 283 285 293 297 305 313
233 259 192 193 169 151 147 145 143 145 143 153 159 151 151 143 146 157 167 188 201 201 228 261 283 290 290 289 291 292 292 296 299 300 300 301 303 302 292 289 288 288 291 295
299 19 207 151 154 153 143 144 146 144 148 144 142 141 144 148 159 171 176 174 211 248 268 287 294 301 304 304 300 300 308 315 314 315 312 319 315 318 318 311 306 301 292 285
91 137 131 151 146 144 138 137 137 133 134 135 137 145 149 149 150 161 173 224 275 293 293 323 18 19 9 355 343 345 7 353 328 320 317 318 317 316 317 318 324 328 323 315
87 222 194 164 149 148 149 148 140 135 139 138 146 147 151 152 149 126 118 102 63 32 359 336 355 356 358 360 5 14 357 0 349 327 325 328 320 317 316 316 321 323 320 313
123 163 162 171 159 150 149 143 135 135 140 140 151 147 131 115 125 126 87 21 359 342 316 329 342 345 347 351 348 331 349 357 351 341 337 330 326 319 316 320 318 318 316 317
123 118 154 145 144 141 142 144 148 154 149 160 161 159 141 146 168 167 162 322 327 314 309 317 329 330 341 338 341 349 348 346 346 345 336 334 327 325 317 319 321 320 321 321
109 139 156 150 146 148 152 152 155 152 161 165 157 159 168 173 175 196 305 312 310 304 302 307 304 307 332 331 318 322 329 328 336 338 336 327 328 322 317 313 322 323 322 320
128 145 149 155 154 152 139 127 111 127 155 173 176 199 183 194 253 283 296 299 295 302 315 311 294 292 323 328 322 316 325 327 328 334 337 334 333 337 338 336 333 326 322 325
128 138 149 139 148 159 153 182 193 201 226 208 171 171 219 253 277 305 300 297 304 307 311 303 313 306 312 314 311 307 320 317 313 321 334 336 325 330 334 336 335 329 326 322
136 147 164 173 168 177 197 166 163 181 183 177 183 221 244 273 293 303 317 312 318 306 305 312 305 302 304 301 311 307 317 311 303 309 309 322 319 322 314 313 327 328 326 325
133 133 131 134 139 148 160 167 177 175 183 209 216 232 267 307 309 319 320 306 304 290 304 303 301 296 296 303 313 307 310 309 307 314 310 307 318 318 313 311 319 325 325 321
150 142 149 160 156 171 174 179 181 187 188 210 230 223 261 293 301 298 295 322 313 316 307 307 298 291 291 291 302 306 310 312 310 310 316 311 316 322 321 317 321 325 323 325
148 144 148 166 201 195 166 160 157 159 190 222 263 256 295 292 304 311 315 316 315 320 318 318 317 298 297 284 294 305 303 319 320 318 318 321 333 339 346 352 356 344 333 330
183 202 186 166 173 79 209 205 253 218 239 272 286 292 282 294 301 303 306 323 341 342 327 324 318 307 297 299 279 299 300 311 314 322 344 333 359 4 356 359 7 7 3 353
214 211 185 157 140 127 120 176 210 216 253 307 308 278 303 310 331 308 304 311 334 2 352 337 345 333 318 302 275 294 314 323 321 336 342 336 4 358 353 355 1 359 359 1
141 135 155 161 168 164 168 189 238 268 291 336 324 331 309 318 303 306 299 298 324 352 3 354 348 356 349 348 326 311 307 326 308 321 350 5 355 352 349 354 4 5 7 9
Wind_Speed_850mb
10 10 7 9 13 20 11 6 7 10 23 28 30 36 46 54 70 61 40 45 25 33 31 38 51 65 67 68 60 56 53 55 46 39 23 18 12 11 14 16 14 17 19 28
10 16 17 15 16 19 7 9 13 13 11 11 32 23 20 32 50 59 52 34 33 41 42 42 49 59 61 64 63 59 42 35 30 17 41 36 17 36 35 41 37 23 23 25
12 12 11 11 13 7 6 5 11 8 5 33 14 32 35 34 46 43 43 36 35 37 34 27 30 32 35 29 22 17 12 13 18 23 18 25 26 20 14 13 22 27 27 23
5 11 2 8 12 10 15 8 13 12 22 36 33 37 26 57 56 41 35 29 27 27 22 15 18 21 26 24 20 21 23 20 15 10 8 9 11 8 10 17 18 21 24 27
4 6 9 0 4 3 7 13 18 11 28 46 54 64 44 55 63 65 34 32 24 22 32 27 22 24 23 20 16 13 7 2 5 10 14 19 22 23 26 29 30 32 34 37
9 9 12 8 13 22 9 6 30 11 32 60 51 20 13 66 75 69 57 33 34 38 35 33 23 20 20 19 10 5 3 10 16 23 27 29 31 32 35 38 41 43 43 42
8 8 8 7 20 21 9 11 32 10 55 44 8 20 71 69 68 53 26 24 31 24 23 18 14 8 8 8 11 9 16 20 27 30 31 33 36 38 40 40 41 40 41 40
5 6 8 11 9 12 11 6 5 27 46 28 30 57 54 51 33 30 41 41 30 24 18 12 9 9 9 10 12 18 23 23 27 30 32 33 35 35 36 38 42 44 46 46
10 11 16 6 29 25 24 33 23 33 31 41 43 45 64 37 44 48 44 42 38 32 25 14 7 8 9 12 17 23 26 29 32 32 31 29 33 36 37 39 43 45 50 56
5 9 18 13 17 12 17 44 39 34 41 43 47 42 46 53 56 51 52 46 35 27 20 13 8 12 13 15 23 30 35 36 34 36 37 35 35 38 41 40 44 50 52 53
8 7 2 18 18 25 29 33 37 36 45 44 56 54 62 61 52 44 36 27 20 16 15 14 12 15 19 25 32 34 36 35 37 38 40 44 40 38 41 41 37 41 49 49
9 14 14 19 35 54 54 53 57 61 65 71 65 69 58 47 36 32 25 21 16 12 11 13 18 25 31 35 38 41 41 40 38 36 32 31 32 33 27 35 38 43 43 40
8 6 24 48 60 52 60 65 62 68 65 73 63 60 50 45 33 19 22 14 9 13 15 19 23 24 27 28 28 26 29 30 30 31 34 33 29 33 44 42 37 39 34 31
8 19 37 56 58 64 72 69 67 66 61 56 50 39 34 30 29 21 11 6 8 11 10 3 14 25 36 35 29 24 28 34 31 33 36 39 36 33 37 44 43 39 27 30
6 8 25 39 62 60 59 62 63 59 52 48 37 34 26 22 14 9 10 9 12 11 6 6 17 28 40 37 22 14 29 49 43 27 33 37 38 38 38 39 39 41 42 46
7 14 14 50 66 68 63 55 54 48 40 33 23 19 13 8 8 8 6 8 13 13 11 11 19 25 35 35 30 29 32 45 42 33 35 40 41 40 38 38 40 44 46 49
18 17 39 56 59 52 45 38 35 34 30 22 21 16 15 17 17 18 10 6 20 18 15 18 16 21 30 32 33 34 42 44 45 44 37 40 42 41 39 37 39 47 50 54
12 21 42 58 54 46 45 45 39 37 27 32 26 23 18 14 12 8 9 21 25 20 16 21 26 24 31 33 37 38 43 43 47 48 46 38 38 37 38 40 46 49 62 62
22 45 54 49 45 43 53 44 31 27 24 21 17 13 14 10 9 17 24 26 19 17 19 25 28 26 28 31 31 37 42 45 42 46 43 38 34 34 36 39 48 59 59 56
34 32 30 38 38 37 34 13 25 18 19 7 8 9 7 9 10 20 20 21 23 24 24 24 26 23 31 34 35 37 41 40 37 39 44 39 30 35 39 45 57 66 55 51
33 30 32 31 26 20 24 34 29 28 23 19 16 15 14 14 16 16 18 26 21 18 21 28 27 29 31 34 37 36 41 42 38 41 44 47 48 48 50 53 61 67 49 44
33 36 39 36 33 31 31 28 27 27 19 11 10 11 11 10 8 11 21 31 31 25 29 35 38 37 35 35 38 40 41 39 41 46 51 50 50 58 55 55 59 55 43 40
28 28 25 23 17 26 30 30 26 22 15 12 11 8 10 13 15 23 31 26 28 30 36 46 42 37 36 39 35 37 42 35 43 46 44 43 48 55 50 53 50 44 39 36
15 11 7 8 16 15 17 25 21 11 7 5 10 6 9 16 22 26 27 30 32 35 35 44 42 37 40 34 29 35 30 32 32 39 34 26 29 34 35 35 37 35 31 30
4 7 6 6 6 1 19 23 18 12 14 13 14 16 20 21 22 18 16 24 31 48 45 39 40 42 38 31 28 29 31 38 26 23 19 16 23 30 28 32 40 45 39 33
12 8 5 4 8 11 11 12 14 9 8 14 21 11 6 11 24 24 15 20 36 52 55 33 41 37 23 21 15 25 32 20 15 13 24 9 28 31 29 32 37 43 40 39
11 14 11 11 10 9 12 10 8 7 7 14 4 7 8 15 20 26 33 29 30 38 52 39 37 32 27 22 13 16 9 17 11 13 20 17 22 28 26 30 37 40 34 34
Wind_Direction_850mb
226 225 261 266 278 302 241 142 124 223 154 177 163 149 163 146 150 158 202 223 147 134 151 154 166 187 192 193 193 187 184 194 196 202 188 201 207 350 332 307 293 304 307 286
338 354 349 301 301 310 51 24 69 72 82 177 173 136 206 154 172 175 195 165 136 125 122 122 129 128 142 153 159 178 187 171 188 186 201 212 214 215 228 285 285 297 295 285
292 334 350 351 326 104 154 198 133 88 190 161 153 148 166 191 177 163 158 154 139 125 124 126 114 116 118 118 117 130 128 174 183 170 208 276 283 273 293 270 285 276 262 270
250 341 327 179 306 10 103 10 32 75 128 155 163 159 143 152 144 142 156 144 141 140 151 160 137 135 119 122 124 135 139 158 185 215 252 321 356 329 286 274 273 278 287 293
181 207 293 256 30 351 359 73 11 122 113 122 121 101 95 141 148 145 160 154 152 153 138 127 123 115 129 136 127 114 120 144 298 305 306 309 307 301 297 296 298 298 298 296
143 192 226 222 290 297 168 177 12 172 147 139 147 110 152 143 152 141 149 167 162 157 145 145 139 143 127 119 124 148 239 295 302 303 305 306 308 308 308 308 307 306 306 309
178 196 300 256 294 328 119 237 338 226 173 164 155 157 143 141 144 148 129 169 168 161 145 137 153 188 170 184 232 250 273 285 294 298 306 312 313 314 314 313 311 313 310 308
111 90 259 308 339 105 223 53 132 124 171 152 121 139 153 164 169 189 167 177 179 170 148 172 218 236 225 248 272 279 285 296 297 304 310 309 306 305 305 309 311 312 313 313
164 208 222 255 136 110 73 136 123 119 152 190 184 173 178 181 166 161 159 164 164 156 149 160 224 283 293 292 294 300 307 305 310 311 312 308 304 304 304 306 309 309 311 307
94 248 226 203 148 129 79 125 124 128 140 156 154 156 155 163 151 147 143 146 145 151 164 170 213 250 268 271 287 295 299 302 305 303 303 298 293 289 290 293 296 302 306 309
302 43 180 217 206 174 156 149 132 131 140 141 161 158 154 150 149 147 144 149 171 177 184 195 230 266 282 288 289 292 292 295 297 295 294 294 293 285 283 285 293 297 305 313
233 259 192 193 169 151 147 145 143 145 143 153 159 151 151 143 146 157 167 188 201 201 228 261 283 290 290 289 291 292 292 296 299 300 300 301 303 302 292 289 288 288 291 295
299 19 207 151 154 153 143 144 146 144 148 144 142 141 144 148 159 171 176 174 211 248 268 287 294 301 304 304 300 300 308 315 314 315 312 319 315 318 318 311 306 301 292 285
91 137 131 151 146 144 138 137 137 133 134 135 137 145 149 149 150 161 173 224 275 293 293 323 18 19 9 355 343 345 7 353 328 320 317 318 317 316 317 318 324 328 323 315
87 222 194 164 149 148 149 148 140 135 139 138 146 147 151 152 149 126 118 102 63 32 359 336 355 356 358 360 5 14 357 0 349 327 325 328 320 317 316 316 321 323 320 313
123 163 162 171 159 150 149 143 135 135 140 140 151 147 131 115 125 126 87 21 359 342 316 329 342 345 347 351 348 331 349 357 351 341 337 330 326 319 316 320 318 318 316 317
123 118 154 145 144 141 142 144 148 154 149 160 161 159 141 146 168 167 162 322 327 314 309 317 329 330 341 338 341 349 348 346 346 345 336 334 327 325 317 319 321 320 321 321
109 139 156 150 146 148 152 152 155 152 161 165 157 159 168 173 175 196 305 312 310 304 302 307 304 307 332 331 318 322 329 328 336 338 336 327 328 322 317 313 322 323 322 320
128 145 149 155 154 152 139 127 111 127 155 173 176 199 183 194 253 283 296 299 295 302 315 311 294 292 323 328 322 316 325 327 328 334 337 334 333 337 338 336 333 326 322 325
128 138 149 139 148 159 153 182 193 201 226 208 171 171 219 253 277 305 300 297 304 307 311 303 313 306 312 314 311 307 320 317 313 321 334 336 325 330 334 336 335 329 326 322
136 147 164 173 168 177 197 166 163 181 183 177 183 221 244 273 293 303 317 312 318 306 305 312 305 302 304 301 311 307 317 311 303 309 309 322 319 322 314 313 327 328 326 325
133 133 131 134 139 148 160 167 177 175 183 209 216 232 267 307 309 319 320 306 304 290 304 303 301 296 296 303 313 307 310 309 307 314 310 307 318 318 313 311 319 325 325 321
150 142 149 160 156 171 174 179 181 187 188 210 230 223 261 293 301 298 295 322 313 316 307 307 298 291 291 291 302 306 310 312 310 310 316 311 316 322 321 317 321 325 323 325
148 144 148 166 201 195 166 160 157 159 190 222 263 256 295 292 304 311 315 316 315 320 318 318 317 298 297 284 294 305 303 319 320 318 318 321 333 339 346 352 356 344 333 330
183 202 186 166 173 79 209 205 253 218 239 272 286 292 282 294 301 303 306 323 341 342 327 324 318 307 297 299 279 299 300 311 314 322 344 333 359 4 356 359 7 7 3 353
214 211 185 157 140 127 120 176 210 216 253 307 308 278 303 310 331 308 304 311 334 2 352 337 345 333 318 302 275 294 314 323 321 336 342 336 4 358 353 355 1 359 359 1
141 135 155 161 168 164 168 189 238 268 291 336 324 331 309 318 303 306 299 298 324 352 3 354 348 356 349 348 326 311 307 326 308 321 350 5 355 352 349 354 4 5 7 9